• MPC Preparation (Info)

  • MPEC 2005-N24 : 2005 NL1

    The following Minor Planet Electronic Circular may be linked-to from your own Web pages, but must not otherwise be redistributed electronically.

    A form allowing access to any MPEC is at the bottom of this page.


    Read MPEC 2005-N23 Read MPEC 2005-N25


    M.P.E.C. 2005-N24                                Issued 2005 July 4, 22:36 UT
    
         The Minor Planet Electronic Circulars contain information on unusual
             minor planets and routine data on comets.  They are published
       on behalf of Commission 20 of the International Astronomical Union by the
              Minor Planet Center, Smithsonian Astrophysical Observatory,
                              Cambridge, MA 02138, U.S.A.
    
                      Supported in part by the Brinson Foundation
                 Prepared using the Tamkin Foundation Computer Network
    
                                  MPC@CFA.HARVARD.EDU
              URL http://cfa-www.harvard.edu/iau/mpc.html  ISSN 1523-6714
    
                                       2005 NL1
    
    Observations:
         K05N01L* C2005 07 03.64645 20 35 08.26 -50 32 51.0          17.2 V EN024E12
         K05N01L  C2005 07 03.65260 20 35 07.76 -50 31 34.0          17.2 V EN024E12
         K05N01L  C2005 07 03.66497 20 35 06.72 -50 28 58.5          17.0 V EN024E12
         K05N01L 1C2005 07 03.71167 20 35 02.796-50 19 09.12         17.0 R EN024413
         K05N01L 1C2005 07 03.71201 20 35 02.772-50 19 04.58         17.0 R EN024413
         K05N01L 1C2005 07 03.71237 20 35 02.742-50 19 00.17         17.0 R EN024413
         K05N01L 1C2005 07 03.81919 20 34 55.46 -49 56 18.1          17.1 R EN024413
         K05N01L 1C2005 07 03.81955 20 34 55.44 -49 56 13.2          16.8 R EN024413
         K05N01L 1C2005 07 03.81991 20 34 55.44 -49 56 09.6          17.1 R EN024413
         K05N01L  C2005 07 04.17815 20 34 59.73 -48 44 17.5          16.6 R EN024I77
         K05N01L  C2005 07 04.18010 20 34 59.58 -48 43 54.3          16.9 R EN024I77
         K05N01L  C2005 07 04.18206 20 34 59.39 -48 43 30.8          16.9 R EN024I77
         K05N01L  C2005 07 04.21671 20 34 56.33 -48 36 34.9          16.8 R EN024I77
         K05N01L  C2005 07 04.21932 20 34 56.07 -48 36 03.8          16.7 R EN024I77
         K05N01L  C2005 07 04.22192 20 34 55.87 -48 35 32.9          17.1 R EN024I77
         K05N01L 1C2005 07 04.56939 20 34 56.944-47 26 53.18         17.2 R EN024413
         K05N01L 1C2005 07 04.56976 20 34 56.923-47 26 49.12         17.1 R EN024413
         K05N01L 1C2005 07 04.57009 20 34 56.883-47 26 45.03         17.1 R EN024413
         K05N01L 1C2005 07 04.83297 20 34 38.518-46 36 10.12         16.9 R EN024413
         K05N01L 1C2005 07 04.83404 20 34 38.485-46 35 57.60         16.8 R EN024413
    
    Observer details:
    413 Siding Spring.  Observer R. H. McNaught.  1.0-m f/8 reflector + CCD.
    E12 Siding Spring Survey.  Observer E. J. Christensen.  Measurers
        E. C. Beshore, C. M. Casey, E. J. Christensen, G. J. Garradd, A. D. Grauer,
        R. E. Hill, S. M. Larson, R. H. McNaught.  0.5-m Uppsala Schmidt + CCD.
    I77 CEAMIG-REA Observatory, Belo Horizonte.  Observers C. Jacques, E. Pimentel.
        Measurer C. Jacques.  0.30-m f/3.0 Schmidt-Cassegrain + CCD.
    
    Orbital elements:
    2005 NL1
    Epoch 2005 June 19.0 TT = JDT 2453540.5                 MPC
    M   7.02181              (2000.0)            P               Q
    n   0.33947119     Peri.  300.99831     -0.47513429     +0.87456985
    a   2.0351704      Node   300.32907     -0.76422105     -0.46469836
    e   0.5152127      Incl.    6.44083     -0.43613483     -0.13850272
    P   2.90           H   21.5           G   0.15
    From 20 observations 2005 July 3-4.
    
    Ephemeris:
    2005 NL1                 a,e,i = 2.04, 0.52, 6                   q = 0.9866
    Date    TT    R. A. (2000) Decl.     Delta      r     Elong.  Phase     V
    2005 06 29    20 35.62   -70 11.0    0.0604   1.056   129.7    47.8    17.3
    2005 07 09    20 33.39   -35 47.0    0.0938   1.104   158.0    20.2    17.6
    2005 07 19    20 29.86   -21 43.6    0.146    1.161   171.5     7.4    18.2
    2005 07 29    20 27.11   -15 25.2    0.209    1.224   176.3     3.0    18.8
    2005 08 08    20 25.98   -12 18.2    0.282    1.291   168.2     9.2    19.9
    2005 08 18    20 27.23   -10 41.2    0.366    1.361   159.7    14.9    20.8
    2005 08 28    20 30.93   -09 48.5    0.462    1.433   151.6    19.6    21.6
    
    Timothy B. Spahr             (C) Copyright 2005 MPC           M.P.E.C. 2005-N24
    

    Read MPEC 2005-N23 Read MPEC 2005-N25


    MPEC number:

    Enter an MPEC number in one of the following forms:

    • 1997-B01 (the full form)
    • J97B01 (the packed version of the full form)
    • B01 (the abbreviated form)